Location: Newark
(49.3000°N, 9.4667°E)
Time: 20:02:15
(UTC+00:00)

Explorer 7 - Visible Passes

Search period start: 24 May 2019 00:00
Search period end: 03 June 2019 00:00
Orbit: 485 x 680 km, 50.3° (Epoch: 23 May)

Date Brightness Start Highest point End Pass type
(mag) Time Alt. Az. Time Alt. Az. Time Alt. Az.
24 May 7.2 00:37:20 10° WNW 00:41:38 44° SSW 00:43:24 28° SSE visible
24 May 7.2 21:20:45 10° W 21:25:34 80° N 21:30:07 10° E visible
24 May 6.9 23:01:38 10° WNW 23:06:19 85° SSW 23:09:36 18° ESE visible
25 May 7.8 00:42:33 10° W 00:45:49 30° SW 00:45:49 30° SW visible
25 May 7.2 19:45:07 10° WSW 19:49:59 74° SSE 19:54:40 10° ENE visible
25 May 7.2 21:25:54 10° W 21:30:42 78° N 21:35:15 10° E visible
25 May 6.9 23:06:44 10° WNW 23:11:23 70° SSW 23:13:11 35° SE visible
26 May 8.8 00:47:55 10° W 00:49:26 17° WSW 00:49:26 17° WSW visible
26 May 7.2 19:50:11 10° WSW 19:55:04 87° SSE 19:59:47 10° ENE visible
26 May 7.2 21:31:02 10° W 21:35:51 80° N 21:40:24 10° E visible
26 May 7.1 23:11:52 10° WNW 23:16:25 54° SSW 23:17:08 48° S visible
27 May 7.3 19:55:18 10° W 20:00:12 84° N 20:04:54 10° E visible
27 May 7.1 21:36:10 10° WNW 21:40:59 88° NNE 21:45:00 13° ESE visible
27 May 7.5 23:17:02 10° W 23:21:16 40° SW 23:21:16 40° SW visible
28 May 7.4 20:00:26 10° W 20:05:19 79° N 20:10:01 10° E visible
28 May 7.0 21:41:17 10° WNW 21:46:05 81° SSW 21:49:14 20° ESE visible
28 May 8.2 23:22:17 10° W 23:25:31 28° SW 23:25:31 28° SW visible
29 May 7.3 20:05:35 10° W 20:10:29 78° N 20:15:10 10° E visible
29 May 7.1 21:46:25 10° WNW 21:51:09 66° SSW 21:53:34 27° SE visible
29 May 8.8 23:27:43 10° W 23:29:52 18° WSW 23:29:52 18° WSW visible
30 May 7.3 20:10:44 10° W 20:15:37 82° N 20:20:17 10° E visible
30 May 7.3 21:51:33 10° WNW 21:56:10 50° SSW 21:57:58 31° SSE visible
30 May 9.3 23:33:31 10° W 23:34:15 12° WSW 23:34:15 12° WSW visible
31 May 7.2 20:15:51 10° WNW 20:20:44 89° SSW 20:25:24 10° ESE visible
31 May 7.8 21:56:44 10° W 22:01:07 37° SW 22:02:24 31° S visible
01 Jun 7.2 20:20:58 10° WNW 20:25:50 76° SSW 20:30:28 10° ESE visible
01 Jun 8.2 22:02:01 10° W 22:06:00 27° SW 22:06:53 25° SSW visible
02 Jun 7.3 20:26:05 10° WNW 20:30:53 61° SSW 20:35:08 12° SE visible
02 Jun 8.7 22:07:30 10° W 22:10:49 19° SW 22:11:26 19° SSW visible
